User: anonymous   Login
Location: Slidell
(30.2789°N, 89.7378°W)
Time: 07:12:38
(UTC-05:00)
Language:

Cosmos 2360 Rocket - Orbit

View from above orbital plane
View from above orbital plane
View from above satellite
View from above satellite

Ground track
Ground track

The orbit data is extracted from the following two-line orbital elements,

1 25407U 98045B   16241.14593151 -.00000147  00000-0 -50507-4 0  9992
2 25407  71.0112 297.2442 0009950 288.3071  71.6969 14.15747022934708
Epoch (UTC): 28 August 2016 03:30:08
Eccentricity: 0.0009950
inclination: 71.0112°
perigee height: 832 km
apogee height: 847 km
right ascension of ascending node: 297.2442°
argument of perigee: 288.3071°
revolutions per day: 14.15747022
mean anomaly at epoch: 71.6969°
orbit number at epoch: 93470

The dashed part of the orbit path shows where the satellite is in the earth's shadow,  

DLR